Weather History for Providence, RI

Change the Weather History Date:

Saturday, March 9, 2013

  Actual Average Record
Temperature  
Mean Temperature 40 °F 37 °F  
Max Temperature 48 °F 46 °F 66 °F (2002)
Min Temperature 31 °F 28 °F 7 °F (2007)
Degree Days  
Heating Degree Days 25 28  
Month to date heating degree days 244 264  
Since 1 July heating degree days 4065 4326  
Cooling Degree Days 0 0  
Month to date cooling degree days 0 0  
Year to date cooling degree days 0 0  
Moisture  
Dew Point 24 °F    
Average Humidity 61    
Maximum Humidity 82    
Minimum Humidity 39    
Precipitation  
Precipitation 0.00 in 0.15 in 3.02 in (1998)
Month to date precipitation 0.19 1.31  
Year to date precipitation 7.15 8.46  
Snow  
Snow 0.00 in 0.20 in 6.00 in (1976)
Month to date snowfall 2.3 2.2  
Since 1 July snowfall 43.7 29.9  
Snow Depth 1.00 in    
Sea Level Pressure  
Sea Level Pressure 30.23 in    
Wind  
Wind Speed 14 mph (NNE)    
Max Wind Speed 24 mph    
Max Gust Speed 32 mph    
Visibility 10 miles    
Events      
T = Trace of Precipitation, MM = Missing Value Source: NWS Daily Summary

Daily Weather History Graph

Daily Weather History Graph

Search for Another Location

Airport:

Trip Planner

Search our weather history database for the weather conditions in past years. The results will help you decide how hot, cold, wet, or windy it might be!

Date:

Astronomy

Mar. 09, 2013 Rise Set
Actual Time 6:07 AM EST 5:45 PM EST
Civil Twilight 5:39 AM EST 6:13 PM EST
Nautical Twilight 5:07 AM EST 6:45 PM EST
Astronomical Twilight 4:34 AM EST 7:18 PM EST
Moon 4:30 AM EST (3/9) 3:43 PM EST (3/9)
Length of Visible Light 12h 33m
Length of Day
11h 38m
Waning Crescent, 5% of the Moon is Illuminated
Mar 9
Waning Crescent
Mar 11
New
Mar 19
First Quarter
Mar 27
Full
Apr 3
Last Quarter

Hourly Weather History & Observations

Time (EST) Temp. Windchill Dew Point Humidity Pressure Visibility Wind Dir Wind Speed Gust Speed Precip Events Conditions
12:51 AM 37.0 °F 27.4 °F 21.0 °F 52% 30.12 in 10.0 mi North 17.3 mph - N/A   Clear
1:51 AM 37.0 °F 26.7 °F 19.9 °F 50% 30.12 in 10.0 mi North 19.6 mph 31.1 mph N/A   Clear
2:51 AM 36.0 °F 25.6 °F 19.9 °F 52% 30.12 in 10.0 mi North 18.4 mph 26.5 mph N/A   Clear
3:51 AM 35.1 °F 24.5 °F 19.0 °F 52% 30.12 in 10.0 mi North 18.4 mph 25.3 mph N/A   Clear
4:51 AM 34.0 °F 24.6 °F 19.0 °F 54% 30.14 in 10.0 mi North 13.8 mph - N/A   Clear
5:51 AM 34.0 °F 23.8 °F 18.0 °F 52% 30.17 in 10.0 mi North 16.1 mph 26.5 mph N/A   Partly Cloudy
6:51 AM 34.0 °F 23.8 °F 19.0 °F 54% 30.19 in 10.0 mi North 16.1 mph - N/A   Partly Cloudy
7:51 AM 35.1 °F 24.1 °F 19.9 °F 54% 30.22 in 10.0 mi North 19.6 mph 27.6 mph N/A   Clear
8:51 AM 36.0 °F 25.0 °F 21.9 °F 57% 30.21 in 10.0 mi NNE 20.7 mph - N/A   Partly Cloudy
9:51 AM 37.9 °F 28.2 °F 24.1 °F 57% 30.22 in 10.0 mi NNE 18.4 mph - N/A   Partly Cloudy
10:51 AM 42.1 °F 34.2 °F 27.0 °F 55% 30.23 in 10.0 mi NNE 16.1 mph - N/A   Scattered Clouds
11:51 AM 45.0 °F 37.9 °F 28.0 °F 52% 30.23 in 10.0 mi NNE 16.1 mph 24.2 mph N/A   Scattered Clouds
12:51 PM 46.9 °F - 26.1 °F 44% 30.23 in 10.0 mi NNE 15.0 mph 21.9 mph N/A   Partly Cloudy
1:51 PM 46.9 °F - 24.1 °F 41% 30.22 in 10.0 mi NNE 16.1 mph - N/A   Partly Cloudy
2:51 PM 48.0 °F - 25.0 °F 41% 30.22 in 10.0 mi NE 15.0 mph - N/A   Partly Cloudy
3:51 PM 46.9 °F - 26.1 °F 44% 30.23 in 10.0 mi NE 10.4 mph - N/A   Partly Cloudy
4:51 PM 44.1 °F 38.1 °F 26.1 °F 49% 30.25 in 10.0 mi NE 11.5 mph - N/A   Partly Cloudy
5:51 PM 39.9 °F 33.4 °F 27.0 °F 60% 30.28 in 10.0 mi NE 10.4 mph - N/A   Partly Cloudy
6:51 PM 36.0 °F 28.5 °F 27.0 °F 70% 30.30 in 10.0 mi ENE 10.4 mph - N/A   Clear
7:51 PM 33.1 °F 26.9 °F 26.1 °F 75% 30.32 in 10.0 mi North 6.9 mph - N/A   Clear
8:51 PM 32.0 °F 25.6 °F 27.0 °F 82% 30.32 in 10.0 mi NNE 6.9 mph - N/A   Partly Cloudy
9:51 PM 33.1 °F 27.7 °F 28.0 °F 82% 30.34 in 10.0 mi North 5.8 mph - N/A   Clear
10:51 PM 32.0 °F 26.4 °F 27.0 °F 82% 30.32 in 10.0 mi North 5.8 mph - N/A   Clear
11:51 PM 32.0 °F 24.8 °F 28.0 °F 85% 30.34 in 10.0 mi NNW 8.1 mph - N/A   Partly Cloudy